EW6343 Weather Reports


time (UTC)temp
C
wind
direction
speed
KPH
gust
KPH
rain 1hr
cm
rain 24hr
cm
rain mn
cm
humidity
%
barometer
mb
20260505184504 14 65 3.2 11.3 0.00 0.00 0.00 67 1012.6
20260505183004 14 51 3.2 9.7 0.00 0.00 0.00 68 1012.6
20260505182005 14 26 4.8 14.5 0.00 0.00 0.00 68 1012.6
20260505180505 14 45 3.2 6.4 0.00 0.00 0.00 68 1012.6
20260505175504 15 85 3.2 6.4 0.00 0.00 0.00 70 1012.6
20260505172003 15 0 0.0 4.8 0.00 0.00 0.00 72 1012.6
20260505171504 16 190 3.2 6.4 0.00 0.00 0.00 73 1012.6
20260505171003 16 182 3.2 11.3 0.00 0.00 0.00 73 1012.6
20260505170503 16 183 3.2 11.3 0.00 0.00 0.00 72 1012.6
20260505170004 17 196 4.8 11.3 0.00 0.00 0.00 70 1012.6
20260505165003 18 195 4.8 14.5 0.00 0.00 0.00 61 1012.5
20260505164504 17 227 3.2 20.9 0.00 0.00 0.00 65 1012.6
20260505163503 16 354 3.2 9.7 0.00 0.00 0.00 59 1012.6
20260505163004 16 11 4.8 11.3 0.00 0.00 0.00 59 1012.6
20260505162504 16 35 4.8 14.5 0.00 0.00 0.00 61 1012.6
20260505161004 16 34 4.8 14.5 0.00 0.00 0.00 61 1012.6
20260505152503 16 50 3.2 14.5 0.00 0.00 0.00 67 1012.8
20260505151503 16 35 3.2 9.7 0.00 0.00 0.00 67 1012.8
20260505151003 15 31 3.2 9.7 0.00 0.00 0.00 68 1012.9
20260505140506 15 5 4.8 11.3 0.00 0.00 0.00 67 1013.3
20260505122505 15 28 4.8 14.5 0.00 0.00 0.00 73 1013.5
20260505121005 15 58 6.4 20.9 0.00 0.00 0.00 73 1013.5
20260505120506 15 51 6.4 20.9 0.00 0.00 0.00 72 1013.6
20260505120006 15 54 6.4 20.9 0.00 0.00 0.00 72 1013.5
20260505114506 15 53 9.7 30.6 0.00 0.00 0.00 75 1013.8
20260505113006 14 42 9.7 22.5 0.00 0.00 0.00 74 1013.9
20260505112505 14 51 9.7 22.5 0.00 0.00 0.00 75 1013.8
20260505111506 15 70 4.8 11.3 0.00 0.00 0.00 74 1013.7
20260505102006 13 70 6.4 14.5 0.00 0.00 0.00 81 1014.0
20260505101505 13 69 4.8 14.5 0.00 0.00 0.00 81 1014.1
20260505100505 13 50 6.4 16.1 0.00 0.00 0.00 81 1014.1
20260505094505 14 60 6.4 20.9 0.00 0.00 0.00 77 1014.1
20260505092506 14 60 9.7 22.5 0.00 0.00 0.00 77 1014.0
20260505092005 14 70 9.7 22.5 0.00 0.00 0.00 78 1014.1
20260505091506 14 76 4.8 19.3 0.00 0.00 0.00 78 1014.1
20260505091005 14 74 6.4 14.5 0.00 0.00 0.00 78 1014.1
20260505090505 13 46 6.4 16.1 0.00 0.00 0.00 80 1014.1
20260505090005 13 45 6.4 20.9 0.00 0.00 0.00 81 1014.1
20260505085005 13 67 4.8 16.1 0.00 0.00 0.00 81 1014.0
20260505083505 13 58 6.4 19.3 0.00 0.00 0.00 80 1014.0
20260505082505 13 62 9.7 25.7 0.00 0.00 0.00 81 1014.0
20260505082005 13 57 6.4 20.9 0.00 0.00 0.00 82 1014.0
20260505080505 12 59 6.4 16.1 0.00 0.00 0.00 84 1014.1
20260505080006 12 68 6.4 16.1 0.00 0.00 0.00 85 1014.1
20260505075506 12 67 4.8 14.5 0.00 0.00 0.00 85 1014.1
20260505075005 12 72 4.8 11.3 0.00 0.00 0.00 86 1014.0
20260505074505 12 74 4.8 11.3 0.00 0.00 0.00 86 1014.0
20260505073506 12 63 6.4 20.9 0.00 0.00 0.00 87 1014.0
20260505073005 12 54 6.4 20.9 0.00 0.00 0.00 87 1014.0
20260505072505 12 66 4.8 14.5 0.00 0.00 0.00 88 1014.0
20260505071505 12 52 3.2 9.7 0.00 0.00 0.00 91 1014.1
20260505071005 12 33 3.2 14.5 0.00 0.00 0.00 92 1014.1
20260505070504 12 16 4.8 14.5 0.00 0.00 0.00 92 1014.0
20260505070005 11 23 4.8 14.5 0.00 0.00 0.00 93 1014.1
20260505065005 11 36 4.8 14.5 0.00 0.00 0.00 95 1014.0
20260505064005 11 5 3.2 9.7 0.00 0.00 0.00 96 1014.0
20260505063505 11 3 3.2 6.4 0.00 0.00 0.00 96 1014.0
20260505063005 11 0 0.0 4.8 0.00 0.00 0.00 96 1014.1
20260505062505 10 0 0.0 1.6 0.00 0.00 0.00 96 1014.0
20260505061505 10 0 0.0 0.0 0.00 0.00 0.00 96 1013.8
20260505060505 10 0 0.0 0.0 0.00 0.00 0.00 96 1013.8
20260505055505 10 0 0.0 0.0 0.00 0.00 0.00 96 1013.9
20260505053005 10 0 0.0 0.0 0.00 0.00 0.00 96 1013.7
20260505052004 10 0 0.0 0.0 0.00 0.00 0.00 96 1013.7
20260505051505 10 0 0.0 0.0 0.00 0.00 0.00 96 1013.7
20260505051005 10 0 0.0 0.0 0.00 0.00 0.00 96 1013.7
20260505041005 10 0 0.0 0.0 0.00 0.00 0.00 96 1013.6
20260505040005 10 0 0.0 0.0 0.00 0.00 0.00 96 1013.7
20260505034504 10 0 0.0 0.0 0.00 0.03 0.00 96 1013.7
20260505033505 10 0 0.0 0.0 0.00 0.03 0.00 96 1013.7
20260505031505 9 0 0.0 0.0 0.00 0.03 0.00 96 1013.8